Bodensee (Kressbronn): 4,4°C  -  Teich der Wetterzentrale Bad Schussenried: 5,0°C  
21.01.2020Höhe
ü. NN
ZeitTemperatur (°C)Nieder-
schlag
Luft-
feuchte
Luft-
druck
Wind
StationaktuellMinimumMaximumaktuellMaximum
Aldingen654 m05:06-7,6-7,8 (04:42)-2,8 (15:17)0,0 l/m²92%1043,40,0 km/h (0 Bft) S24,1 km/h (4 Bft) N (14:17)
Allmannsweiler625 m05:05-2,5-2,5 (05:00)-1,3 (00:00)0,0 l/m²95%1042,08,0 km/h (2 Bft) O-SO14,5 km/h (3 Bft) O-SO (02:20)
Allmendingen541 m05:05-1,2-1,2 (04:50)0,1 (14:05)0,0 l/m²91%1042,111,3 km/h (2 Bft) O-SO38,6 km/h (5 Bft) O-NO (14:10)
Altshausen574 m04:30-2,8-3,8 (02:34)-2,0 (00:00)0,0 l/m²83%1040,84,8 km/h (1 Bft) N-NO12,9 km/h (3 Bft) O-NO (00:13)
Amstetten-Reutti663 m05:05-2,1-2,2 (05:00)-1,4 (14:15)0,0 l/m²96%1042,022,5 km/h (4 Bft) O33,8 km/h (5 Bft) N-NO (13:55)
Amtzell-Grenis677 m05:05-4,5-4,6 (04:50)-3,3 (00:00)0,0 l/m²76%1043,64,8 km/h (1 Bft) W-NW4,8 km/h (1 Bft) W-NW (00:00)
Aulendorf570 m05:05-2,4-2,6 (04:28)-1,2 (00:00)0,0 l/m²90%1041,711,3 km/h (2 Bft) O16,1 km/h (3 Bft) O-NO (00:13)
Bad Krozingen233 m05:05-3,0-3,1 (04:35)-1,1 (15:05)0,0 l/m²90%1043,43,3 km/h (1 Bft) S-SO33,0 km/h (5 Bft) O-NO (13:20)
Bad Saulgau595 m05:05-2,4-2,4 (04:55)-1,2 (14:40)0,0 l/m²91%1041,211,3 km/h (2 Bft) S-SW30,6 km/h (5 Bft) SW (17:50)
Bad Saulgau-Lampertsweiler627 m05:05-2,3-2,4 (03:20)-1,3 (00:00)0,0 l/m²86%1044,611,3 km/h (2 Bft) NO19,3 km/h (3 Bft) O-SO (00:20)
Bad Schussenried572 m05:05-1,9-1,9 (04:45)-0,7 (00:00)0,0 l/m²93%1040,99,7 km/h (2 Bft) O-NO14,5 km/h (3 Bft) O-NO (03:50)
Bergatreute615 m05:05-3,2-4,3 (00:35)-2,4 (02:30)0,0 l/m²95%1041,90,0 km/h (0 Bft) NO11,3 km/h (2 Bft) NO (02:50)
Biberach (Riss), Boehringer533 m05:10-1,2-1,3 (05:10)-0,2 (00:00)0,0 l/m²89%1040,01,1 km/h (1 Bft) N-NO17,6 km/h (3 Bft) O-NO (04:50)
Biberach (Riss), Realschule553 m05:05-1,7-1,8 (04:00)-0,7 (00:00)0,0 l/m²90%1043,317,7 km/h (3 Bft) O20,9 km/h (4 Bft) O (04:00)
Burgrieden523 m05:05-1,6-1,7 (05:05)-1,2 (00:00)0,0 l/m²88%1042,616,1 km/h (3 Bft) O-NO19,3 km/h (3 Bft) NO (00:05)
Ebersbach579 m05:05-2,3-2,3 (04:35)-1,1 (00:00)0,0 l/m²93%1043,116,1 km/h (3 Bft) NO20,9 km/h (4 Bft) O-NO (01:50)
Ebersbach-Boos605 m05:05-2,7-2,7 (05:05)-1,2 (00:00)0,0 l/m²94%1042,814,5 km/h (3 Bft) N-NO19,3 km/h (3 Bft) O-NO (02:25)
Ebersbach-Menzenweiler661 m05:05-3,1-3,1 (04:45)-1,7 (00:00)0,0 l/m²96%1042,925,7 km/h (4 Bft) NO30,6 km/h (5 Bft) O-NO (02:50)
Erlenmoos645 m05:05-1,9-2,0 (04:10)-1,1 (00:00)0,0 l/m²93%1042,714,5 km/h (3 Bft) O-NO20,9 km/h (4 Bft) O (00:40)
Ertingen569 m05:05-1,9-1,9 (05:05)-1,0 (00:00)0,0 l/m²91%1042,312,9 km/h (3 Bft) O-NO17,7 km/h (3 Bft) NO (05:00)
Friedrichshafen405 m05:05-3,0-3,0 (05:05)-0,9 (13:40)0,0 l/m²90%1042,73,2 km/h (1 Bft) N-NO30,6 km/h (5 Bft) NO (14:00)
Günzburg443 m05:05-0,7-1,2 (00:25)-0,6 (02:35)0,0 l/m²89%1040,19,7 km/h (2 Bft) NO16,1 km/h (3 Bft) NO (02:10)
Hochdorf-Appendorf537 m05:05-1,8-2,1 (03:50)-0,8 (00:00)0,0 l/m²73%1042,220,9 km/h (4 Bft) NO24,1 km/h (4 Bft) N (03:20)
Höchsten802 m05:05-4,4-4,4 (05:00)-3,5 (00:25)0,0 l/m²93%1040,222,5 km/h (4 Bft) NO33,8 km/h (5 Bft) N-NO (02:00)
Horgenzell618 m05:05-3,2-3,3 (03:05)-2,6 (00:00)0,0 l/m²93%1040,68,0 km/h (2 Bft) NO25,7 km/h (4 Bft) NO (01:30)
Hoßkirch632 m05:05-2,9-3,2 (02:25)-2,1 (00:00)0,0 l/m²93%1041,416,1 km/h (3 Bft) NO17,7 km/h (3 Bft) NO (00:30)
Isny, Am Dreifingerbach695 m05:05-6,6-7,1 (04:40)-4,6 (00:00)0,0 l/m²92%1042,00,0 km/h (0 Bft) O-NO8,0 km/h (2 Bft) NO (02:45)
Isny, Weidachweg706 m05:05-6,7-6,8 (05:05)-4,3 (00:00)0,0 l/m²88%1044,30,0 km/h (0 Bft) NO6,4 km/h (2 Bft) O-SO (02:05)
Kappel-Grafenhausen163 m05:00-1,2-1,2 (04:35)1,1 (14:40)0,0 l/m²91%1040,76,4 km/h (2 Bft) N22,5 km/h (4 Bft) N (13:35)
Kirchberg an der Iller584 m05:051,91,9 (06:00)1,9 (06:00)0,0 l/m²84%1031,44,8 km/h (1 Bft) W19,0 km/h (3 Bft) W (17:30)
Kißlegg-Staibshof709 m05:05-3,9-3,9 (05:05)-2,6 (00:00)0,0 l/m²96%1042,519,3 km/h (3 Bft) O19,3 km/h (3 Bft) O-NO (02:55)
Kressbronn398 m05:08-4,1-4,2 (04:58)-1,3 (00:00)0,0 l/m²89%1041,60,0 km/h (0 Bft) O0,0 km/h (0 Bft) O (00:00)
Kreuzthal-Steinberg-Alpe930 m05:00-5,9-6,7 (02:20)-5,5 (00:10)0,0 l/m²100%1040,02,2 km/h (1 Bft) O-SO5,8 km/h (2 Bft) W-NW (01:30)
Kreuzthal-Steinberggipfel1040 m05:00-3,8-5,8 (01:00)-3,7 (05:00)-66%1040,01,4 km/h (1 Bft) N-NW18,7 km/h (3 Bft) S-SW (00:40)
Kristberg im Montafon (AT)1425 m05:07-2,0-3,7 (00:00)-1,7 (02:32)0,0 l/m²55%1051,20,0 km/h (0 Bft) N11,9 km/h (3 Bft) N (01:48)
Laupheim500 m05:05-1,4-1,4 (04:20)-0,7 (00:15)0,6 l/m²87%1041,814,5 km/h (3 Bft) O-SO17,7 km/h (3 Bft) O (00:05)
Leutkirch-Heggelbach670 m05:05-4,3-5,1 (04:40)-2,9 (00:00)0,0 l/m²93%1041,914,5 km/h (3 Bft) NO14,5 km/h (3 Bft) O-NO (05:05)
Lindau-Insel420 m05:05-2,7-2,7 (04:55)-0,7 (15:30)0,0 l/m²84%1041,94,8 km/h (1 Bft) N-NO22,5 km/h (4 Bft) NO (15:45)
Lindau-Stadt412 m05:05-3,3-3,3 (04:45)-1,7 (15:00)0,0 l/m²86%1042,26,4 km/h (2 Bft) N-NO29,0 km/h (5 Bft) O-NO (15:25)
Maierhöfen im Allgäu733 m05:05-8,1-8,2 (04:55)-3,9 (00:00)0,0 l/m²92%1042,70,0 km/h (0 Bft) S-SW12,9 km/h (3 Bft) O (01:20)
Maselheim543 m05:05-2,1-2,1 (05:00)-1,2 (14:20)0,0 l/m²90%1042,612,9 km/h (3 Bft) NO29,0 km/h (5 Bft) O (15:30)
Maselheim-Sulmingen548 m05:05-1,8-1,8 (21:25)-1,1 (14:20)0,0 l/m²91%1043,712,9 km/h (3 Bft) O29,0 km/h (5 Bft) O (15:40)
Mietingen-Baltringen528 m05:05-1,6-1,6 (04:30)-0,8 (00:00)0,0 l/m²88%1044,411,3 km/h (2 Bft) O-SO16,1 km/h (3 Bft) O (04:10)
Mindelheim-Apfeltrach620 m05:06-2,7-2,8 (05:06)-1,7 (00:00)0,0 l/m²91%1044,01,6 km/h (1 Bft) O-NO8,0 km/h (2 Bft) O (00:19)
Mittelbiberach577 m05:08-2,1-2,2 (04:07)-1,2 (00:18)0,0 l/m²89%1043,76,4 km/h (2 Bft) O20,9 km/h (4 Bft) NO (03:47)
Neresheim552 m05:00-1,8-2,0 (02:00)-1,5 (04:00)0,0 l/m²94%1039,515,5 km/h (3 Bft) SO15,5 km/h (3 Bft) SO (05:00)
Neukirch570 m05:05-4,1-4,1 (04:55)-2,6 (15:20)0,0 l/m²91%1042,311,3 km/h (2 Bft) NO37,0 km/h (5 Bft) NO (13:35)
Ochsenhausen, Birkenstraße613 m05:05-1,7-1,8 (04:35)-0,8 (14:30)0,0 l/m²86%1042,80,0 km/h (0 Bft) N-NO1,6 km/h (1 Bft) N-NO (19:50)
Ochsenhausen, Unt. Wiesen575 m05:05-2,0-2,1 (03:40)-0,9 (00:00)0,0 l/m²90%1043,911,3 km/h (2 Bft) NO17,7 km/h (3 Bft) O-NO (03:00)
Opfenbach-Göritz561 m05:07-6,0-6,4 (04:07)-3,4 (01:00)0,0 l/m²86%1040,41,4 km/h (1 Bft) N14,4 km/h (3 Bft) N (01:27)
Ostrach619 m05:05-1,6-1,6 (04:55)-0,4 (00:00)0,0 l/m²92%1040,76,4 km/h (2 Bft) O-NO16,1 km/h (3 Bft) N-NO (00:45)
Ravensburg, Goethestraße428 m05:15-2,2-2,2 (05:05)-1,0 (00:00)0,0 l/m²91%1041,69,7 km/h (2 Bft) N-NO19,3 km/h (3 Bft) NO (00:35)
Ravensburg, Springerstraße441 m05:05-2,3-2,3 (04:30)-1,0 (00:00)0,0 l/m²77%1038,60,0 km/h (0 Bft) O-SO0,0 km/h (0 Bft) W (00:00)
Ravensburg-Wernsreute511 m05:05-2,8-2,9 (04:40)-1,6 (14:45)0,0 l/m²91%1044,716,1 km/h (3 Bft) N-NO43,5 km/h (6 Bft) NO (15:30)
Reichenbach an der Fils343 m05:050,2-1,3 (02:50)0,3 (00:00)0,0 l/m²85%1044,611,3 km/h (2 Bft) SO14,5 km/h (3 Bft) O-NO (03:40)
Reinstetten559 m05:05-1,8-1,8 (03:45)-0,8 (00:00)0,0 l/m²90%1043,016,1 km/h (3 Bft) NO20,9 km/h (4 Bft) N-NO (01:00)
Riedlingen530 m05:05-1,4-1,4 (04:25)-0,5 (00:00)0,0 l/m²90%1042,30,0 km/h (0 Bft) O-NO19,3 km/h (3 Bft) O (01:00)
Rißtissen489 m04:55-0,6-0,7 (04:10)-0,1 (00:00)0,0 l/m²91%1040,08,0 km/h (2 Bft) O14,5 km/h (3 Bft) O-NO (00:15)
Rottweil-Hausen681 m05:07-5,1-5,1 (04:45)-2,9 (00:00)0,0 l/m²90%1043,63,2 km/h (1 Bft) W-NW9,7 km/h (2 Bft) N (02:17)
Schemmerhofen520 m05:05-1,2-1,2 (04:20)-0,3 (00:00)0,0 l/m²91%1042,114,5 km/h (3 Bft) O16,1 km/h (3 Bft) O-NO (01:20)
Silbertal im Montafon (AT)884 m05:05-6,4-7,7 (00:05)-6,4 (04:48)0,0 l/m²93%1048,40,0 km/h (0 Bft) NW0,0 km/h (0 Bft) N (00:00)
Tettnang466 m05:05-2,9-3,0 (04:35)-1,0 (00:00)0,0 l/m²87%1042,11,6 km/h (1 Bft) O-SO16,1 km/h (3 Bft) O-SO (02:05)
Tuttlingen662 m01:21-2,9-3,0 (01:01)-2,8 (00:01)0,0 l/m²75%1040,611,3 km/h (2 Bft) NO11,3 km/h (2 Bft) NO (01:21)
Tuttlingen, Möhringer-Vorstadt711 m05:05-4,0-4,0 (05:05)-2,2 (15:05)0,0 l/m²91%1042,00,0 km/h (0 Bft) NO25,7 km/h (4 Bft) O-NO (11:20)
Ummendorf547 m05:05-1,8-1,9 (04:40)-0,7 (00:00)0,0 l/m²82%1043,716,1 km/h (3 Bft) O20,9 km/h (4 Bft) O-NO (04:40)
Ummendorf-Fischbach558 m05:05-2,1-2,2 (04:35)-0,8 (00:00)0,0 l/m²82%1043,419,3 km/h (3 Bft) NO19,3 km/h (3 Bft) O-NO (02:40)
Waldburg707 m05:05-4,0-4,1 (05:05)-2,9 (00:00)0,0 l/m²93%1042,09,7 km/h (2 Bft) N19,3 km/h (3 Bft) N (00:55)
Waltenhofen im Allgäu720 m05:05-8,7-8,7 (05:00)-6,5 (00:00)0,0 l/m²91%1043,13,2 km/h (1 Bft) S-SW27,4 km/h (4 Bft) S-SW (14:55)
Wangen, Südring548 m05:07-4,2-4,2 (03:39)-3,2 (01:00)0,0 l/m²89%1041,83,2 km/h (1 Bft) NO11,3 km/h (2 Bft) N (04:00)
Weingarten500 m05:05-3,1-3,1 (05:00)-1,9 (00:00)0,0 l/m²91%1042,14,8 km/h (1 Bft) N-NO11,3 km/h (2 Bft) N-NO (02:05)
Winterlingen785 m05:00-3,8-3,9 (04:15)-2,4 (00:00)0,0 l/m²95%1040,75,0 km/h (1 Bft) O-NO6,5 km/h (2 Bft) O-NO (00:35)

Werbung
niederschlagsdatenbank | info | login - erfassung

Sollten Sie Interesse haben, an der Niederschlagsdatenbank teilzunehmen, finden Sie > hier < weitere Informationen.

Niederschlagsdaten der Station Bad Waldsee-Haisterkirch - Zur Spitzenkapelle 1

Josef Zell

Niederschlagsstation aufgenommen ins Stationsnetz der Wetterwarte Süd am 01.03.2009
Monat: .
Anmerkung:0,0 = nicht messbarer Niederschlag
 -  = kein Niederschlag

Stationsdaten

Höhe

640 m

Lage

Auf Google Maps ansehen

Beschreibung

Zwei für die Region ungewöhnlich massive Gewitterregen mit Überschwemmungen erheblichen Ausmaßes binnen weniger Jahre um die Jahrtausendwende lieferten die Idee zum Aufstellen einer Wetterstation. Die Station liegt nur unweit vom Ortskern (Kirche, Rathaus / Klostergebäude). Auf Grund einer Weststaulage am Fuße des Haidgauer Berges (754 m Grabener Höhe / Aussichtspunkt Alpen bis Bussen) registriere ich an meiner Hobbystation in der Regel mehr Niederschlag als die offizielle Wetterstation im etwa 15 km westlicher liegenden Bad Schussenried. Die Windrichtung wird oft durch den Höhenzug lokal verändert. (Ostwinde hier oft aus Nord) Die Daten werden im 12-Minuten Turnus erfasst. Die Mindestmenge zur Registrierung beträgt 0,3l/qm. Es handelt sich um einen selbstentleerenden Wippenmesser. Der Regenmesser ist Solarbetrieben und ohne Heizung. Auf Grund dessen sind die Niederschlagsmengen bei Schneefall in der Regel nahezu NULL. Bei Tauwetter jedoch werden die fehlenden Mengen ausgeglichen. Die Werte sind also im Winter mit diesem Hintergrundwissen zu interpretieren!!!

Der bereits in einer Urkunde des Klosters St. Gallen aus dem Jahre 805 erstmals erwähnte Ort ist das Hauptort des etwa 1400 Einwohner zählenden Haistergaus. Etwa 4 km südlich von Haisterkirch und etwa 60 m höher gelegen ist bei der "Schanze" der Übergang in das "Wurzacher Becken". Im Norden läuft das Tal sanft zum Rißtal hin aus. Gut 1 km westlich (Richtung Bad Waldsee) wird das Tal durch eine Eiszeitmoräne begrenzt. Diese ist zugleich die Europäische Wasserscheide Rhein / Donau. Das Wasser der zahlreichen Quellen des im Osten angrenzenden Haidgauer Höhenzuges (Entfernung ca. 1.5 km, Höhe gut 100 m über dem Ort) fließt in den Haisterbach, von da in die Umlach. Diese in die Riß und schließlich in die Donau. Landwirtschaftliche Nutzfläche sowie mehrere Ortschaften und Weiler prägen das Tal. Einen Besuch wert sind insbesonders die Pfarrkirche, das Klostergebäude (beinhaltet unter anderem eine der schönsten Grundschulen des Landes sowie das Rathaus) und die Wallfahrtskapelle St. Sebastian. Auch das nur 2 km entfernte Naherholungsgebiet "Tannenbühl" mit Kletterpark, Spielplatz und zahlreichen Wildgehegen sowie Lehrpfaden ist ein das gesamte Jahr über beliebtes Ausflugsziel.
< März 2019Mai 2019 >

April 2019

TagNiederschlagBemerkung
01.-
+4/+15,5°C, wolkenlos
02.-
+2/+19,5°C, wolkenlos, frühsommerlich mild
03.-
+5/+17,5°C, sonnig
04.3,0
Regen Schneeregen Schnee
05.0,7
-0,5/+8°C, bewölkt, am frühen Vormittag mit Niederschlag
Regen
06.-
-1,4/+15°C 17:00 sonnig, einige Schleierwolken
07.18,0
+1/+15°C, vormittags bewölkt, nachmittags freundlich, nachts Regen
Regen
08.1,5
+5/+12°C, bewölkt, vorwiegend nachts leichter Niederschlag
Regen
09.6,0
+6/+11°C, bewölkt, zum Abend Sonnenschein, nachts einsetzender Regen
Regen Nieselregen Bodennebel
10.5,0
+3/+8,5°, Novemberstimmung - tief grau und nass
Regen Bodennebel
11.-
+3/+9,5°C, bewölkt, kühl
12.-
-1/+10°C, nach nächtlichem Luftfrost Mix aus Sonnenschein und Wolken
13.1,0
21:00: +1/+10,5°C, bewölkt, ca. 14:30 Schauer, danach sonnig
Schneeregen
14.-
+1/+7°C, sehr kühl und stark bewölkt
15.-
+1/+14°C, morgens bewölkt, ab 11:00 sonnig
16.-
0/+17,5°C, sonnig, nachmittags ab 15:30 zeitweise Wolken, Richtung Alb anhaltende Quellbewölkung
17.-
+7/+18°C, nach milder Nacht vormittags harmlose, kompakte Bewölkung, nachmittags meist sonnig
18.-
+3,5/+19,5°C, wolkenlos
19.-
+3/+21°C, sonnig, warm, um die Mittagszeit lockere Wolken
20.-
+4/+22°C, blanker Horizont bei warmen Temperaturen
21.-
+4/+23°C, bei harmloser Bewölkung nahezu sommerlich temperiert - zu Mitternacht noch +14°C
22.-
+4/+23°C, bei zahlreicheren harmlosen Wolken erneut nahezu sommerlich temperiert
23.-
+8/+24°C, nach milder Nacht Sonne-Wolken-Mix und vorsommerlich warm
24.-
+8/+24,5°C, nach milder Nacht vorsommerlich warm und freundlich bei zeitweise ausgedehntem Geschlier
25.-
+7,5/+24,5°C, nach milder Nacht vorsommerlich warm, besonders nachmittags mal mehr mal weniger Schleiergewölk
26.8,5
+13° um 0:00 , tags +5/+8°C, 10:00-16:00 nach fast 2 Wochen Trockenheit anhaltender mäßiger Regen
Regen
27.5,5
+4/+12,5°C, stark bewölkt, ab und an einige Tropfen, ab 18:00 Regenwetter
Regen Schneeregen
28.0,2
+2/+9,5° (8:15), dann auf +6° gefallen, sehr kühl, nach morgendlichem Sonnenschein rasch stark bewölkt, zeitweise Schauer
Regen Graupel
Schneehöhe: etwas Matsch
29.4,0
+4/+10,5°C, bewölkt mit sonnigen Abschnitten
Regen
30.2,8
+5,7/+11,5°C, massiv bewölkt, sehr kühl
Regen
Gesamt:56,2 
Die Spalten "Tag" und "Niederschlag" lassen sich durch Klicken auf den Spaltenkopf sortieren.
Die Angaben sind in l/m².

< März 2019Mai 2019 >


Monats- und Jahresniederschlag


Wetterbeobachtungen Legende:

  • Regen
  • Nieselregen
  • Schneeregen
  • Schnee
  • Graupel
  • Eiskörner
  • Hagel
  • Bodennebel
  • Gewitter
  • Nebelnässe
  • Schneegriesel

Grafische Darstellung der Niederschläge der Station Bad Waldsee-Haisterkirch April 2019

 
wetterstationen
wetterstationen
- derzeit 80 Stationen
niederschlagsdatenbank
wetterstationen
- kartographische Darstellung
niederschlagsdatenbank
niederschlagsstationen
- derzeit 111 Stationen
niederschlagsdatenbank
niederschlagsstationen
- kartographische Darstellung
 
Di. 21.01.2020 - 7.30 Uhr (MEZ)
1.Bad Schussenried
Konradstraße
Schneeflecken
2.Weingarten
Laurastraße
Reste
 
  treffpunkt & service
--- Anzeigen --------------------------------
zugriffe:
insgesamt: 45.720.878
aktueller monat: 209.438
heute: 269
momentan online: 18
 
 
monatshöchstwert: 653.625
vorheriger monat: 318.382
gestern: 14.084
tageshöchstwert: 51.297
 
wetterwarte süd
 
konradstraße 3
info@wetterwarte-sued.com
roland roth
 
88427 bad schussenried